Regional Weather Roundup
Issued by NWS Cleveland, OH

Home | Current Version | Previous Version | Text Only | Print | Product List | Glossary Off
Versions: 1 2 3 4 5 6 7 8 9 10 11 12 13 14 15 16 17 18 19 20 21 22 23 24 25 26 27 28 29 30 31 32 33 34 35 36 37 38 39 40 41 42 43 44 45 46 47 48 49 50

000
ASUS41 KCLE 281700
RWRCLE
OHIO REGIONAL WEATHER ROUNDUP
NATIONAL WEATHER SERVICE WILMINGTON, OH
1200 PM EST FRI NOV 28 2014

NOTE: "FAIR" INDICATES FEW OR NO CLOUDS BELOW 12,000 FEET WITH NO
SIGNIFICANT WEATHER AND/OR OBSTRUCTIONS TO VISIBILITY.

OHZ001>008-015>018-024>027-034-035-043-044-281800-
   NORTHWEST OHIO

CITY           SKY/WX    TMP DP  RH WIND       PRES   REMARKS
DEFIANCE       CLOUDY    27  17  66 S13       30.30F WCI  16
FINDLAY        CLOUDY    28  17  63 SW10      30.29F WCI  19
TOLEDO EXPRESS PTSUNNY   25  15  66 SW9G17    30.29F WCI  15
TOLEDO METCALF MOSUNNY   26  16  65 S9        30.31F WCI  17
LIMA           CLOUDY    28  17  63 S12       30.28F WCI  18
$$

OHZ009>014-019>023-028>033-038-089-281800-
   NORTHEAST OHIO

CITY           SKY/WX    TMP DP  RH WIND       PRES   REMARKS
CLE-HOPKINS    PTSUNNY   24  13  62 SW12      30.34F WCI  13
CLE-LAKEFRONT  CLOUDY    26  16  65 W7        30.33F WCI  18
CUY CO. ARPT   CLOUDY    25  19  80 W14       30.32F WCI  13
LORAIN-ELYRIA  PTSUNNY   22  13  68 SW5       30.32F WCI  16
ASHTABULA      CLOUDY    25  14  63 W8        30.29F WCI  16
AKRON-CANTON   CLOUDY    25  14  63 SW6       30.29F WCI  18
WOOSTER        NOT AVBL
MANSFIELD      CLOUDY    25  17  72 SW13      30.28F WCI  14
YOUNGSTOWN     FLURRIES  24  15  68 W10       30.29F WCI  14
$$

OHZ042-051>053-060>062-070>072-077>081-281800-
  SOUTHWEST OHIO

CITY           SKY/WX    TMP DP  RH WIND       PRES   REMARKS
CINC-COVINGTON CLOUDY    31  15  52 S12       30.32F WCI  22
CINC-LUNKEN    PTSUNNY   32  19  58 S10       30.36F WCI  24
HAMILTON       CLOUDY    33  17  51 S7        30.35F WCI  27
DAYTON         NOT AVBL
WRIGHT-PAT AFB CLOUDY    28  18  64 S9        30.32F WCI  20
DAYTON GENERAL CLOUDY    30  20  66 S12       30.31F WCI  20
WILMINGTON     CLOUDY    29  19  66 S9        30.31F WCI  20
$$

OHZ036-037-039>041-045>050-054>059-063>069-073>076-082>088-281800-
  CENTRAL AND SOUTHEAST OHIO

CITY           SKY/WX    TMP DP  RH WIND       PRES   REMARKS
COLUMBUS       CLOUDY    29  16  58 SW8       30.34F WCI  21
OSU AIRPORT    CLOUDY    28  16  60 SW9       30.32F WCI  19
BOLTON FIELD   CLOUDY    27  18  69 SW10      30.34F WCI  17
RICKENBACK AFB NOT AVBL
NEWARK         CLOUDY    28  16  60 SW8       30.32F WCI  20
MARION         CLOUDY    27  18  69 SW9       30.31F WCI  18
LANCASTER      PTSUNNY   29  17  61 SW8       30.34F WCI  21
ZANESVILLE     CLOUDY    27  16  63 W6        30.34F WCI  20
NEW PHILLY     CLOUDY    26  16  65 CALM      30.34F
$$



USA.gov is the U.S. government's official web portal to all federal, state and local government web resources and services.